Location: Gesvres
(49.0440°N, 2.8518°E)
Time: 08:24:03
(UTC+00:00)

Cosmos 2278 Rocket - Pass Details

Date: 28 January 2023
Orbit: 841 x 845 km, 71.0° (Epoch: 24 March)

Event Time Altitude Azimuth Distance (km) Brightness Sun altitude
Rises 19:38:15 0° 335° (NNW) 3,417 5.8 -29.3°
Reaches altitude 10° 19:41:16 10° 350° (N) 2,479 4.8 -29.8°
Enters shadow 19:42:52 16° 3° (N) 2,073 4.2 -30.1°
